NOAA 16 DEB, 41062

Orbit data source: Space-Track

NOAA 16 DEB, 41062 is space debris in SSO originally from a launch on Thu, 21 Sep 2000 UTC launched from the Air Force Western Test Range (AFWTR). Debris objects in space refer to the collection of defunct objects orbiting the Earth. Examples of debris include non-operational satellites, rocket bodies, and fragments generated from explosions, collisions, or faulty payload assembly.

Loading next visibility...
Identifier
41062, 2000-055V
Orbit
SSO
Country
Flag of USUS
Related business
Manufacturer
Unknown
Mission
Spacecraft
Bus & Motor
Unknown
Mass
Unknown
Launch date (UTC)
2000-09-21 (25 years ago)
Launch vehicle
Unknown
Launch site
Air Force Western Test Range (AFWTR)
Object type
Payload
Rocket body
Debris
Shape & HBR
Unknown shape, 0.1 m
Radar Cross Section
Small (<0.1 m²)

Expand to show TLE details & history
Last TLE update: 11 hours ago

TLE from 11 hours ago
0 NOAA 16 DEB
1 41062U 00055V   26034.05150084  .00002456  00000-0  12201-2 0  9996
2 41062  98.6682  69.6349 0026895 214.4738 145.4694 14.17809857524059
Epoch: 2026-02-03T01:14Z
TLE epoch observation values (Epoch: 2026-02-03T01:14:09.672Z)
Latitude
-0°
Longitude
-82.14338°
Altitude
851.679 km
Speed
7.419 km/s
True Right ascension
04h 38m 32s
True Declination
0° 00' 00"
Sunlit
Object was in daylight at epoch
Visualization orbit readout
Latitude
Unknown
Longitude
Unknown
Altitude
Unknown
Speed
Unknown
Apparent Right ascension
Unknown
Apparent Declination
Unknown
Sunlit
N/A
Visualization observer readout
Local Sidereal Time
13:46:56
Azimuth
Unknown
Elevation
Unknown
Doppler factor
Unknown
Orbital elements
Apogee altitude
849.315 km
Perigee altitude
810.543 km
Semi-major axis
7,208.066 km
Eccentricity
0.00269
Inclination
98.6682°
RAAN
69.6349°
Arg. of periapsis
214.4738°
True anomaly
145.64362°
Mean anomaly
145.4694°
Eccentric anomaly
145.55656°
Mean motion
3.54662 °/min
Orbital period
101.51 mins
BSTAR
0.0012201
Loading maneuver chart data...
Computing Atmospheric mass density...
Loading historical data...
Loading historical data...
Loading historical data...
Loading historical data...
Loading historical data...
Loading historical data...
Loading historical data...

Documentation

Showing up to 5 results
|